Location: Home
(42.5358°N, 72.7383°W)
Time: 11:11:13
(UTC-05:00)

Vanguard 2 Rocket - Pass Details

Date: 18 December 2025
Orbit: 553 x 3287 km, 32.9° (Epoch: 17 January)

Event Time Altitude Azimuth Distance (km) Brightness Sun altitude
Rises 06:11:03 0° 226° (SW) 6,728 11.1 -11.5°
Reaches altitude 10° 06:15:30 10° 221° (SW) 5,935 10.8 -10.8°
Maximum altitude 06:33:30 47° 156° (SSE) 3,933 10.5 -7.7°
Drops below altitude 10° 06:49:59 10° 90° (E) 5,497 12.1 -5.0°
Sets 06:53:53 0° 85° (E) 6,220 12.2 -4.4°
